Simultaneous Nadir Overpasses (SNOs) Predictions

Prediction of SNOs between METOP-B and TERRA Satellite Orbit:

Table of predicted SNOs for the next 14.0 days since TLE Epoch: 3/12/2016
Index Date (METOP-B) Time (METOP-B) Lat,Lon (METOP-B) SZA (METOP-B ) Date (TERRA) Time (TERRA) Lat,Lon (TERRA) SZA (TERRA ) Distance(km) Time Diff (sec)
1 03/14/2016 02:26:20 -81.36, 11.72 93.63 03/14/2016 02:27:15 -81.36, 11.58 93.63 2.40 55
2 03/14/2016 03:17:00 81.37, 179.40 86.40 03/14/2016 03:16:41 81.37, 179.35 86.39 0.87 19
3 03/16/2016 22:00:40 -81.36, 78.01 94.73 03/16/2016 22:01:30 -81.35, 77.86 94.73 2.73 50
4 03/16/2016 22:51:20 81.37,-114.35 85.30 03/16/2016 22:50:56 81.36,-114.41 85.27 1.35 24
5 03/19/2016 17:34:59 -81.37, 144.66 95.79 03/19/2016 17:35:44 -81.37, 144.64 95.77 0.74 45
6 03/
